Time,TemperatureF,DewpointF,PressureIn,WindDirection,WindDirectionDegrees,WindSpeedMPH,WindSpeedGustMPH,Humidity,HourlyPrecipIn,Conditions,Clouds,dailyrainin,SoftwareType,DateUTC
2013-02-26 00:01:00,46.0,45.0,29.91,ENE,68,0.0,-999.0,95,-99.99,,,-99.99,,2013-02-26 05:01:00,
2013-02-26 00:12:00,47.0,46.0,29.92,WNW,292,0.0,-999.0,95,-99.99,,,-99.99,,2013-02-26 05:12:00,
2013-02-26 00:22:00,47.0,46.0,29.92,WNW,292,0.0,-999.0,95,-99.99,,,-99.99,,2013-02-26 05:22:00,
2013-02-26 00:32:00,47.0,46.0,29.92,NW,306,0.0,-999.0,95,-99.99,,,-99.99,,2013-02-26 05:32:00,
2013-02-26 00:43:00,47.0,46.0,29.92,NW,306,0.0,-999.0,95,-99.99,,,-99.99,,2013-02-26 05:43:00,
2013-02-26 00:52:00,47.0,46.0,29.91,East,82,0.0,-999.0,95,-99.99,,,-99.99,,2013-02-26 05:52:00,
2013-02-26 01:02:00,47.0,46.0,29.91,East,82,0.0,-999.0,95,-99.99,,,-99.99,,2013-02-26 06:02:00,
2013-02-26 01:11:00,47.0,46.0,29.91,East,82,0.0,-999.0,95,-99.99,,,-99.99,,2013-02-26 06:11:00,
2013-02-26 01:21:00,47.0,46.0,29.89,ESE,110,0.0,-999.0,96,-99.99,,,-99.99,,2013-02-26 06:21:00,
2013-02-26 01:32:00,47.0,46.0,29.90,NE,56,0.0,-999.0,96,-99.99,,,-99.99,,2013-02-26 06:32:00,
2013-02-26 01:42:00,47.0,46.0,29.90,NE,56,0.0,-999.0,96,-99.99,,,-99.99,,2013-02-26 06:42:00,
2013-02-26 01:52:00,48.0,47.0,29.89,NE,56,0.0,-999.0,96,-99.99,,,-99.99,,2013-02-26 06:52:00,
2013-02-26 02:01:00,47.0,46.0,29.89,NE,56,0.0,-999.0,96,-99.99,,,-99.99,,2013-02-26 07:01:00,
2013-02-26 02:11:00,47.0,46.0,29.89,NE,56,0.0,-999.0,96,-99.99,,,-99.99,,2013-02-26 07:11:00,
2013-02-26 02:22:00,48.0,47.0,29.88,NE,56,0.0,-999.0,97,-99.99,,,-99.99,,2013-02-26 07:22:00,
2013-02-26 02:32:00,47.0,46.0,29.86,NE,56,0.0,-999.0,97,-99.99,,,-99.99,,2013-02-26 07:32:00,
2013-02-26 02:42:00,47.0,46.0,29.86,NE,56,0.0,-999.0,97,-99.99,,,-99.99,,2013-02-26 07:42:00,
2013-02-26 02:52:00,48.0,47.0,29.85,ENE,57,0.0,-999.0,97,-99.99,,,-99.99,,2013-02-26 07:52:00,
2013-02-26 03:02:00,48.0,47.0,29.85,ENE,57,0.0,-999.0,97,-99.99,,,-99.99,,2013-02-26 08:02:00,
2013-02-26 03:11:00,49.0,48.0,29.84,ENE,57,0.0,-999.0,97,-99.99,,,-99.99,,2013-02-26 08:11:00,
2013-02-26 03:21:00,49.0,48.0,29.84,ENE,57,0.0,-999.0,97,-99.99,,,-99.99,,2013-02-26 08:21:00,
2013-02-26 03:32:00,49.0,48.0,29.83,NE,56,0.0,-999.0,97,-99.99,,,-99.99,,2013-02-26 08:32:00,
2013-02-26 03:42:00,49.0,48.0,29.83,NE,56,0.0,-999.0,97,-99.99,,,-99.99,,2013-02-26 08:42:00,
2013-02-26 03:52:00,49.0,48.0,29.82,NE,56,0.0,-999.0,97,-99.99,,,-99.99,,2013-02-26 08:52:00,
2013-02-26 04:02:00,50.0,49.0,29.80,NE,56,0.0,-999.0,97,-99.99,,,-99.99,,2013-02-26 09:02:00,
2013-02-26 04:11:00,50.0,49.0,29.80,NE,56,0.0,-999.0,97,-99.99,,,-99.99,,2013-02-26 09:11:00,
2013-02-26 04:21:00,50.0,49.0,29.80,North,360,0.0,-999.0,97,-99.99,,,-99.99,,2013-02-26 09:21:00,
2013-02-26 04:32:00,50.0,49.0,29.80,North,5,0.0,-999.0,98,-99.99,,,-99.99,,2013-02-26 09:32:00,
2013-02-26 04:43:00,50.0,49.0,29.80,North,5,0.0,-999.0,98,-99.99,,,-99.99,,2013-02-26 09:43:00,
2013-02-26 04:52:00,51.0,50.0,29.78,North,360,0.0,-999.0,98,-99.99,,,-99.99,,2013-02-26 09:52:00,
2013-02-26 05:01:00,51.0,50.0,29.78,North,360,0.0,-999.0,97,-99.99,,,-99.99,,2013-02-26 10:01:00,
2013-02-26 05:11:00,51.0,50.0,29.78,North,360,0.0,-999.0,97,-99.99,,,-99.99,,2013-02-26 10:11:00,
2013-02-26 05:21:00,52.0,51.0,29.74,East,83,0.0,-999.0,98,-99.99,,,-99.99,,2013-02-26 10:21:00,
2013-02-26 05:31:00,52.0,51.0,29.75,ESE,114,0.0,-999.0,97,-99.99,,,-99.99,,2013-02-26 10:31:00,
2013-02-26 05:42:00,52.0,51.0,29.75,ESE,114,0.0,-999.0,97,-99.99,,,-99.99,,2013-02-26 10:42:00,
2013-02-26 05:52:00,53.0,52.0,29.74,ESE,104,0.0,-999.0,98,-99.99,,,-99.99,,2013-02-26 10:52:00,
2013-02-26 06:01:00,53.0,52.0,29.74,ENE,78,0.0,-999.0,98,-99.99,,,-99.99,,2013-02-26 11:01:00,
2013-02-26 06:12:00,53.0,52.0,29.74,ENE,78,0.0,-999.0,98,-99.99,,,-99.99,,2013-02-26 11:12:00,
2013-02-26 06:22:00,54.0,53.0,29.73,SE,146,0.0,-999.0,98,-99.99,,,-99.99,,2013-02-26 11:22:00,
2013-02-26 06:32:00,54.0,53.0,29.72,SSE,148,0.0,-999.0,98,-99.99,,,-99.99,,2013-02-26 11:32:00,
2013-02-26 06:42:00,55.0,54.0,29.72,SSE,148,0.0,-999.0,98,-99.99,,,-99.99,,2013-02-26 11:42:00,
2013-02-26 06:53:00,55.0,54.0,29.72,SSE,148,0.0,-999.0,98,-99.99,,,-99.99,,2013-02-26 11:53:00,
2013-02-26 07:01:00,55.0,54.0,29.71,SSE,148,0.0,-999.0,98,-99.99,,,-99.99,,2013-02-26 12:01:00,
2013-02-26 07:11:00,55.0,54.0,29.71,SSE,148,0.0,-999.0,98,-99.99,,,-99.99,,2013-02-26 12:11:00,
2013-02-26 07:22:00,56.0,55.0,29.72,SE,146,0.0,-999.0,98,-99.99,,,-99.99,,2013-02-26 12:22:00,
2013-02-26 07:32:00,55.0,54.0,29.71,SSE,148,0.0,-999.0,98,-99.99,,,-99.99,,2013-02-26 12:32:00,
2013-02-26 07:42:00,55.0,54.0,29.71,SSE,148,0.0,-999.0,98,-99.99,,,-99.99,,2013-02-26 12:42:00,
2013-02-26 07:53:00,56.0,55.0,29.69,WSW,242,0.0,-999.0,98,-99.99,,,-99.99,,2013-02-26 12:53:00,
2013-02-26 08:02:00,57.0,56.0,29.68,SSE,157,1.0,-999.0,98,-99.99,,,-99.99,,2013-02-26 13:02:00,
2013-02-26 08:11:00,60.0,59.0,29.67,WNW,294,0.0,-999.0,98,-99.99,,,-99.99,,2013-02-26 13:11:00,
2013-02-26 08:22:00,60.0,59.0,29.67,WNW,294,0.0,-999.0,98,-99.99,,,-99.99,,2013-02-26 13:22:00,
2013-02-26 08:32:00,60.0,59.0,29.68,ESE,117,2.0,-999.0,98,-99.99,,,-99.99,,2013-02-26 13:32:00,
2013-02-26 08:42:00,60.0,59.0,29.68,ESE,117,2.0,-999.0,98,-99.99,,,-99.99,,2013-02-26 13:42:00,
2013-02-26 08:52:00,63.0,62.0,29.68,West,273,2.0,-999.0,98,-99.99,,,-99.99,,2013-02-26 13:52:00,
2013-02-26 09:01:00,62.0,61.0,29.71,SSW,193,1.0,-999.0,98,-99.99,,,-99.99,,2013-02-26 14:01:00,
2013-02-26 09:11:00,62.0,61.0,29.71,SSW,193,1.0,-999.0,98,-99.99,,,-99.99,,2013-02-26 14:11:00,
2013-02-26 09:21:00,61.0,60.0,29.71,WNW,302,0.0,-999.0,98,-99.99,,,-99.99,,2013-02-26 14:21:00,
2013-02-26 09:32:00,61.0,60.0,29.70,WNW,302,1.0,-999.0,98,-99.99,,,-99.99,,2013-02-26 14:32:00,
2013-02-26 09:42:00,61.0,60.0,29.70,WNW,302,1.0,-999.0,98,-99.99,,,-99.99,,2013-02-26 14:42:00,
2013-02-26 09:52:00,62.0,61.0,29.68,WNW,298,0.0,-999.0,98,-99.99,,,-99.99,,2013-02-26 14:52:00,
2013-02-26 10:02:00,62.0,61.0,29.67,SSE,150,1.0,-999.0,98,-99.99,,,-99.99,,2013-02-26 15:02:00,
2013-02-26 10:11:00,62.0,61.0,29.67,SSE,150,1.0,-999.0,98,-99.99,,,-99.99,,2013-02-26 15:11:00,
2013-02-26 10:22:00,62.0,61.0,29.69,SSE,149,0.0,-999.0,98,-99.99,,,-99.99,,2013-02-26 15:22:00,
2013-02-26 10:32:00,62.0,61.0,29.68,SSE,149,0.0,-999.0,98,-99.99,,,-99.99,,2013-02-26 15:32:00,
2013-02-26 10:42:00,62.0,61.0,29.68,SSE,149,0.0,-999.0,98,-99.99,,,-99.99,,2013-02-26 15:42:00,
2013-02-26 10:52:00,63.0,62.0,29.66,SSE,149,0.0,-999.0,98,-99.99,,,-99.99,,2013-02-26 15:52:00,
2013-02-26 11:01:00,64.0,63.0,29.67,SSE,168,2.0,-999.0,98,-99.99,,,-99.99,,2013-02-26 16:01:00,
2013-02-26 11:11:00,64.0,63.0,29.67,SSE,168,2.0,-999.0,98,-99.99,,,-99.99,,2013-02-26 16:11:00,
2013-02-26 11:22:00,67.0,66.0,29.65,SSW,198,4.0,-999.0,98,-99.99,,,-99.99,,2013-02-26 16:22:00,
2013-02-26 11:32:00,66.0,65.0,29.65,SE,143,4.0,-999.0,98,-99.99,,,-99.99,,2013-02-26 16:32:00,
2013-02-26 11:42:00,66.0,65.0,29.65,SE,143,4.0,-999.0,98,-99.99,,,-99.99,,2013-02-26 16:42:00,
2013-02-26 11:52:00,67.0,66.0,29.64,SW,217,3.0,-999.0,98,-99.99,,,-99.99,,2013-02-26 16:52:00,
2013-02-26 12:01:00,67.0,66.0,29.63,SSE,154,4.0,-999.0,98,-99.99,,,-99.99,,2013-02-26 17:01:00,
2013-02-26 12:11:00,68.0,67.0,29.62,SSW,195,4.0,-999.0,98,-99.99,,,-99.99,,2013-02-26 17:11:00,
2013-02-26 12:22:00,68.0,67.0,29.62,SSW,195,4.0,-999.0,98,-99.99,,,-99.99,,2013-02-26 17:22:00,
2013-02-26 12:32:00,68.0,67.0,29.60,SE,128,4.0,-999.0,98,-99.99,,,-99.99,,2013-02-26 17:32:00,
2013-02-26 12:42:00,68.0,67.0,29.60,SE,128,4.0,-999.0,98,-99.99,,,-99.99,,2013-02-26 17:42:00,
2013-02-26 12:52:00,70.0,68.0,29.58,SSE,161,5.0,-999.0,95,-99.99,,,-99.99,,2013-02-26 17:52:00,
2013-02-26 13:02:00,71.0,69.0,29.57,SE,140,5.0,-999.0,92,-99.99,,,-99.99,,2013-02-26 18:02:00,
2013-02-26 13:12:00,71.0,69.0,29.57,SE,140,5.0,-999.0,92,-99.99,,,-99.99,,2013-02-26 18:12:00,
2013-02-26 13:21:00,71.0,68.0,29.57,SW,223,5.0,-999.0,91,-99.99,,,-99.99,,2013-02-26 18:21:00,
2013-02-26 13:32:00,71.0,68.0,29.55,SE,130,6.0,-999.0,89,-99.99,,,-99.99,,2013-02-26 18:32:00,
2013-02-26 13:42:00,71.0,68.0,29.55,SE,130,6.0,-999.0,89,-99.99,,,-99.99,,2013-02-26 18:42:00,
2013-02-26 13:52:00,73.0,69.0,29.54,South,178,6.0,-999.0,86,-99.99,,,-99.99,,2013-02-26 18:52:00,
2013-02-26 14:01:00,72.0,68.0,29.53,WNW,283,4.0,-999.0,87,-99.99,,,-99.99,,2013-02-26 19:01:00,
2013-02-26 14:11:00,72.0,68.0,29.53,WNW,283,4.0,-999.0,87,-99.99,,,-99.99,,2013-02-26 19:11:00,
2013-02-26 14:22:00,73.0,68.0,29.53,SE,134,5.0,-999.0,85,-99.99,,,-99.99,,2013-02-26 19:22:00,
2013-02-26 14:32:00,73.0,68.0,29.53,SE,143,6.0,-999.0,84,-99.99,,,-99.99,,2013-02-26 19:32:00,
2013-02-26 14:42:00,73.0,68.0,29.53,SE,143,6.0,-999.0,84,-99.99,,,-99.99,,2013-02-26 19:42:00,
2013-02-26 14:52:00,72.0,67.0,29.53,SSE,163,7.0,-999.0,84,-99.99,,,-99.99,,2013-02-26 19:52:00,
2013-02-26 15:01:00,72.0,67.0,29.54,SW,214,5.0,-999.0,84,-99.99,,,-99.99,,2013-02-26 20:01:00,
2013-02-26 15:11:00,72.0,67.0,29.54,SW,214,5.0,-999.0,84,-99.99,,,-99.99,,2013-02-26 20:11:00,
2013-02-26 15:21:00,72.0,66.0,29.54,South,182,7.0,-999.0,81,-99.99,,,-99.99,,2013-02-26 20:21:00,
2013-02-26 15:32:00,71.0,65.0,29.53,South,171,4.0,-999.0,82,-99.99,,,-99.99,,2013-02-26 20:32:00,
2013-02-26 15:41:00,71.0,65.0,29.53,South,171,4.0,-999.0,82,-99.99,,,-99.99,,2013-02-26 20:41:00,
2013-02-26 15:52:00,71.0,66.0,29.54,SSW,211,3.0,-999.0,84,-99.99,,,-99.99,,2013-02-26 20:52:00,
2013-02-26 16:01:00,71.0,66.0,29.54,South,182,2.0,-999.0,85,-99.99,,,-99.99,,2013-02-26 21:01:00,
2013-02-26 16:11:00,71.0,66.0,29.54,South,182,2.0,-999.0,85,-99.99,,,-99.99,,2013-02-26 21:11:00,
2013-02-26 16:21:00,71.0,67.0,29.54,SSW,196,1.0,-999.0,87,-99.99,,,-99.99,,2013-02-26 21:21:00,
2013-02-26 16:31:00,71.0,67.0,29.54,South,188,3.0,-999.0,87,-99.99,,,-99.99,,2013-02-26 21:31:00,
2013-02-26 16:41:00,71.0,67.0,29.54,South,188,3.0,-999.0,87,-99.99,,,-99.99,,2013-02-26 21:41:00,
2013-02-26 16:51:00,71.0,67.0,29.54,SSW,194,3.0,-999.0,86,-99.99,,,-99.99,,2013-02-26 21:51:00,
2013-02-26 17:01:00,70.0,66.0,29.54,South,183,2.0,-999.0,87,-99.99,,,-99.99,,2013-02-26 22:01:00,
2013-02-26 17:11:00,71.0,66.0,29.54,SW,219,2.0,-999.0,85,-99.99,,,-99.99,,2013-02-26 22:11:00,
2013-02-26 17:21:00,71.0,66.0,29.54,SW,219,2.0,-999.0,85,-99.99,,,-99.99,,2013-02-26 22:21:00,
2013-02-26 17:32:00,70.0,65.0,29.53,South,182,2.0,-999.0,85,-99.99,,,-99.99,,2013-02-26 22:32:00,
2013-02-26 17:41:00,70.0,65.0,29.53,South,182,2.0,-999.0,85,-99.99,,,-99.99,,2013-02-26 22:41:00,
2013-02-26 17:52:00,70.0,65.0,29.52,South,187,1.0,-999.0,83,-99.99,,,-99.99,,2013-02-26 22:52:00,
2013-02-26 18:01:00,69.0,64.0,29.52,SSE,153,1.0,-999.0,83,-99.99,,,-99.99,,2013-02-26 23:01:00,
2013-02-26 18:11:00,69.0,64.0,29.52,SSE,153,1.0,-999.0,83,-99.99,,,-99.99,,2013-02-26 23:11:00,
2013-02-26 18:21:00,69.0,64.0,29.53,SSW,200,0.0,-999.0,83,-99.99,,,-99.99,,2013-02-26 23:21:00,
2013-02-26 18:31:00,69.0,64.0,29.54,South,186,1.0,-999.0,83,-99.99,,,-99.99,,2013-02-26 23:31:00,
2013-02-26 18:42:00,69.0,64.0,29.54,South,186,1.0,-999.0,83,-99.99,,,-99.99,,2013-02-26 23:42:00,
2013-02-26 18:52:00,68.0,63.0,29.54,South,175,0.0,-999.0,83,-99.99,,,-99.99,,2013-02-26 23:52:00,
2013-02-26 19:01:00,67.0,62.0,29.55,South,171,0.0,-999.0,83,-99.99,,,-99.99,,2013-02-27 00:01:00,
2013-02-26 19:11:00,67.0,62.0,29.55,South,171,0.0,-999.0,83,-99.99,,,-99.99,,2013-02-27 00:11:00,
2013-02-26 19:22:00,67.0,62.0,29.56,SSW,194,0.0,-999.0,83,-99.99,,,-99.99,,2013-02-27 00:22:00,
2013-02-26 19:32:00,66.0,60.0,29.57,SSW,194,0.0,-999.0,82,-99.99,,,-99.99,,2013-02-27 00:32:00,
2013-02-26 19:42:00,66.0,60.0,29.57,SSW,194,0.0,-999.0,82,-99.99,,,-99.99,,2013-02-27 00:42:00,
2013-02-26 19:52:00,65.0,60.0,29.58,SSW,210,0.0,-999.0,83,-99.99,,,-99.99,,2013-02-27 00:52:00,
2013-02-26 20:01:00,65.0,59.0,29.59,SSW,213,0.0,-999.0,82,-99.99,,,-99.99,,2013-02-27 01:01:00,
2013-02-26 20:11:00,65.0,59.0,29.59,SSW,213,0.0,-999.0,82,-99.99,,,-99.99,,2013-02-27 01:11:00,
2013-02-26 20:22:00,65.0,59.0,29.59,SW,218,0.0,-999.0,82,-99.99,,,-99.99,,2013-02-27 01:22:00,
2013-02-26 20:32:00,64.0,58.0,29.60,SW,218,0.0,-999.0,82,-99.99,,,-99.99,,2013-02-27 01:32:00,
2013-02-26 20:42:00,64.0,58.0,29.60,SW,218,0.0,-999.0,82,-99.99,,,-99.99,,2013-02-27 01:42:00,
2013-02-26 20:52:00,64.0,59.0,29.60,SW,218,0.0,-999.0,84,-99.99,,,-99.99,,2013-02-27 01:52:00,
2013-02-26 21:01:00,63.0,58.0,29.60,SW,218,0.0,-999.0,85,-99.99,,,-99.99,,2013-02-27 02:01:00,
2013-02-26 21:15:00,63.0,58.0,29.60,SW,218,0.0,-999.0,85,-99.99,,,-99.99,,2013-02-27 02:15:00,
2013-02-26 21:23:00,63.0,59.0,29.61,SW,218,0.0,-999.0,86,-99.99,,,-99.99,,2013-02-27 02:23:00,
2013-02-26 21:32:00,61.0,57.0,29.62,SW,218,0.0,-999.0,87,-99.99,,,-99.99,,2013-02-27 02:32:00,
2013-02-26 21:42:00,61.0,57.0,29.62,SW,218,0.0,-999.0,87,-99.99,,,-99.99,,2013-02-27 02:42:00,
2013-02-26 21:52:00,62.0,58.0,29.62,SW,218,0.0,-999.0,87,-99.99,,,-99.99,,2013-02-27 02:52:00,
2013-02-26 22:02:00,61.0,57.0,29.63,SW,218,0.0,-999.0,87,-99.99,,,-99.99,,2013-02-27 03:02:00,
2013-02-26 22:11:00,62.0,57.0,29.63,SSW,203,0.0,-999.0,84,-99.99,,,-99.99,,2013-02-27 03:11:00,
2013-02-26 22:22:00,62.0,57.0,29.63,SSW,203,0.0,-999.0,84,-99.99,,,-99.99,,2013-02-27 03:22:00,
2013-02-26 22:32:00,62.0,57.0,29.63,SW,218,1.0,-999.0,83,-99.99,,,-99.99,,2013-02-27 03:32:00,
2013-02-26 22:42:00,62.0,57.0,29.63,SW,218,1.0,-999.0,83,-99.99,,,-99.99,,2013-02-27 03:42:00,
2013-02-26 22:52:00,62.0,56.0,29.65,SW,236,0.0,-999.0,81,-99.99,,,-99.99,,2013-02-27 03:52:00,
2013-02-26 23:01:00,62.0,56.0,29.65,SW,236,0.0,-999.0,81,-99.99,,,-99.99,,2013-02-27 04:01:00,
2013-02-26 23:11:00,62.0,56.0,29.65,SW,236,0.0,-999.0,81,-99.99,,,-99.99,,2013-02-27 04:11:00,
2013-02-26 23:22:00,62.0,56.0,29.65,SW,234,0.0,-999.0,81,-99.99,,,-99.99,,2013-02-27 04:22:00,
2013-02-26 23:32:00,61.0,55.0,29.65,SW,234,0.0,-999.0,82,-99.99,,,-99.99,,2013-02-27 04:32:00,
2013-02-26 23:42:00,61.0,55.0,29.65,SW,234,0.0,-999.0,82,-99.99,,,-99.99,,2013-02-27 04:42:00,
2013-02-26 23:52:00,61.0,55.0,29.65,SW,223,0.0,-999.0,82,-99.99,,,-99.99,,2013-02-27 04:52:00,